Climatologie pour Saint-Brevin les Pins
Jour • Résumé pour juillet 8, 2017 Système :  Métrique    Anglais   Mixte
« - 1 jour
+ 1 jour »
Jour Semaine Mois Année Personnalisé
  Maximum : Minimum : Moyenne :
Température sous abri : 33.2 °C 16.5 °C 24.6 °C
Point de rosée : 19.4 °C 12.6 °C 15.9 °C
Humidité : 87 % 38 % 61 %
Vitesse du vent : 16.1 km/h 0.0 km/h 5.3 km/h
Rafale : 20.9 km/h - -
Direction :- - East
Pression : 1019.5 hPa 1013.4 hPa -
Précipitations : 0.0 mm    
Historical Graphs
 
 
Tableau de données pour juillet 8, 2017
Heure Tempé Pt rosée Pression Vent Vitesse Rafale Humidité Taux pluie (/hr) Soleil
00:00 20.8 °C 16.4 °C 1018.2 hPa North 6.4 km/h 11.3 km/h 76 % 0.0 mm 0 W/m2
00:05 20.7 °C 16.3 °C 1018.2 hPa North 8.0 km/h 11.3 km/h 76 % 0.0 mm 0 W/m2
00:10 20.9 °C 16.1 °C 1018.2 hPa NNW 3.2 km/h 12.9 km/h 74 % 0.0 mm 0 W/m2
00:15 20.9 °C 15.7 °C 1018.2 hPa North 4.8 km/h 12.9 km/h 72 % 0.0 mm 0 W/m2
00:20 21.1 °C 15.6 °C 1018.2 hPa NNE 1.6 km/h 11.3 km/h 71 % 0.0 mm 0 W/m2
00:25 20.9 °C 15.5 °C 1018.2 hPa NNE 3.2 km/h 12.9 km/h 71 % 0.0 mm 0 W/m2
00:30 20.9 °C 15.5 °C 1018.2 hPa NE 3.2 km/h 12.9 km/h 71 % 0.0 mm 0 W/m2
00:35 20.9 °C 15.4 °C 1018.2 hPa NNE 1.6 km/h 9.7 km/h 71 % 0.0 mm 0 W/m2
00:40 20.6 °C 15.2 °C 1018.2 hPa NE 4.8 km/h 9.7 km/h 71 % 0.0 mm 0 W/m2
00:45 20.3 °C 15.1 °C 1018.5 hPa NE 1.6 km/h 9.7 km/h 72 % 0.0 mm 0 W/m2
00:50 20.3 °C 15.1 °C 1018.2 hPa NNE 1.6 km/h 9.7 km/h 72 % 0.0 mm 0 W/m2
00:55 20.2 °C 15.0 °C 1018.2 hPa NE 1.6 km/h 11.3 km/h 72 % 0.0 mm 0 W/m2
01:00 20.2 °C 15.0 °C 1018.2 hPa NNE 4.8 km/h 11.3 km/h 72 % 0.0 mm 0 W/m2
01:05 20.1 °C 14.9 °C 1018.2 hPa NNE 4.8 km/h 9.7 km/h 72 % 0.0 mm 0 W/m2
01:10 20.1 °C 14.9 °C 1018.5 hPa NE 4.8 km/h 11.3 km/h 72 % 0.0 mm 0 W/m2
01:15 20.0 °C 14.6 °C 1018.2 hPa NW 1.6 km/h 11.3 km/h 71 % 0.0 mm 0 W/m2
01:20 20.0 °C 14.4 °C 1018.2 hPa NNE 1.6 km/h 11.3 km/h 70 % 0.0 mm 0 W/m2
01:25 20.0 °C 14.4 °C 1018.2 hPa NE 8.0 km/h 11.3 km/h 70 % 0.0 mm 0 W/m2
01:30 19.9 °C 14.3 °C 1018.2 hPa NE 1.6 km/h 9.7 km/h 70 % 0.0 mm 0 W/m2
01:35 19.8 °C 14.4 °C 1018.2 hPa NE 6.4 km/h 11.3 km/h 71 % 0.0 mm 0 W/m2
01:40 19.7 °C 14.3 °C 1018.2 hPa NE 1.6 km/h 11.3 km/h 71 % 0.0 mm 0 W/m2
01:45 19.6 °C 14.2 °C 1018.2 hPa NNE 1.6 km/h 9.7 km/h 71 % 0.0 mm 0 W/m2
01:50 19.6 °C 14.2 °C 1018.2 hPa NNE 6.4 km/h 9.7 km/h 71 % 0.0 mm 0 W/m2
01:55 19.5 °C 14.3 °C 1018.2 hPa North 3.2 km/h 9.7 km/h 72 % 0.0 mm 0 W/m2
02:00 19.2 °C 14.2 °C 1018.2 hPa NNE 3.2 km/h 9.7 km/h 73 % 0.0 mm 0 W/m2
02:05 18.9 °C 14.2 °C 1017.8 hPa NE 1.6 km/h 8.0 km/h 74 % 0.0 mm 0 W/m2
02:15 18.8 °C 14.3 °C 1017.8 hPa NNE 3.2 km/h 9.7 km/h 75 % 0.0 mm 0 W/m2
02:20 18.7 °C 14.3 °C 1017.8 hPa NNE 4.8 km/h 9.7 km/h 76 % 0.0 mm 0 W/m2
02:25 18.7 °C 14.4 °C 1017.8 hPa NNE 3.2 km/h 9.7 km/h 76 % 0.0 mm 0 W/m2
02:30 18.8 °C 14.3 °C 1017.8 hPa NNE 9.7 km/h 11.3 km/h 75 % 0.0 mm 0 W/m2
02:35 19.0 °C 14.5 °C 1017.8 hPa North 3.2 km/h 12.9 km/h 75 % 0.0 mm 0 W/m2
02:40 18.9 °C 14.4 °C 1017.8 hPa North 4.8 km/h 12.9 km/h 75 % 0.0 mm 0 W/m2
02:45 19.0 °C 14.3 °C 1017.8 hPa ENE 12.9 km/h 16.1 km/h 74 % 0.0 mm 0 W/m2
02:50 18.9 °C 14.2 °C 1017.8 hPa NNE 4.8 km/h 16.1 km/h 74 % 0.0 mm 0 W/m2
02:55 18.8 °C 14.0 °C 1017.8 hPa North 3.2 km/h 12.9 km/h 74 % 0.0 mm 0 W/m2
03:00 18.8 °C 13.8 °C 1017.8 hPa NE 1.6 km/h 11.3 km/h 73 % 0.0 mm 0 W/m2
03:05 18.7 °C 13.7 °C 1017.8 hPa NE 4.8 km/h 12.9 km/h 73 % 0.0 mm 0 W/m2
03:10 18.5 °C 13.6 °C 1017.8 hPa NE 3.2 km/h 12.9 km/h 73 % 0.0 mm 0 W/m2
03:15 18.4 °C 13.7 °C 1017.8 hPa NNE 3.2 km/h 11.3 km/h 74 % 0.0 mm 0 W/m2
03:20 18.2 °C 13.5 °C 1017.8 hPa NE 4.8 km/h 11.3 km/h 74 % 0.0 mm 0 W/m2
03:25 18.1 °C 13.4 °C 1017.8 hPa Calm   11.3 km/h 74 % 0.0 mm 0 W/m2
03:30 18.1 °C 13.3 °C 1017.8 hPa NE 3.2 km/h 11.3 km/h 74 % 0.0 mm 0 W/m2
03:35 17.9 °C 13.2 °C 1017.8 hPa NE 6.4 km/h 11.3 km/h 74 % 0.0 mm 0 W/m2
03:40 17.9 °C 13.2 °C 1017.8 hPa NE 4.8 km/h 9.7 km/h 74 % 0.0 mm 0 W/m2
03:45 17.8 °C 13.1 °C 1017.8 hPa NNE 4.8 km/h 11.3 km/h 74 % 0.0 mm 0 W/m2
03:50 17.8 °C 13.1 °C 1017.8 hPa North 6.4 km/h 11.3 km/h 74 % 0.0 mm 0 W/m2
03:55 17.8 °C 12.9 °C 1017.8 hPa North 9.7 km/h 11.3 km/h 73 % 0.0 mm 0 W/m2
04:00 17.7 °C 13.0 °C 1017.8 hPa NE 6.4 km/h 11.3 km/h 74 % 0.0 mm 0 W/m2
04:05 17.6 °C 12.9 °C 1017.8 hPa NE 4.8 km/h 11.3 km/h 74 % 0.0 mm 0 W/m2
04:10 17.5 °C 12.8 °C 1017.8 hPa NE 4.8 km/h 11.3 km/h 74 % 0.0 mm 0 W/m2
04:15 17.4 °C 12.8 °C 1017.5 hPa NE 3.2 km/h 12.9 km/h 74 % 0.0 mm 0 W/m2
04:20 17.4 °C 12.9 °C 1017.5 hPa NNE 4.8 km/h 12.9 km/h 75 % 0.0 mm 0 W/m2
04:25 17.4 °C 12.7 °C 1017.5 hPa ENE 8.0 km/h 11.3 km/h 74 % 0.0 mm 0 W/m2
04:30 17.3 °C 12.9 °C 1017.5 hPa NE 4.8 km/h 12.9 km/h 75 % 0.0 mm 0 W/m2
04:35 17.2 °C 12.7 °C 1017.5 hPa NE 6.4 km/h 12.9 km/h 75 % 0.0 mm 0 W/m2
04:40 17.3 °C 12.8 °C 1017.5 hPa North 3.2 km/h 11.3 km/h 75 % 0.0 mm 0 W/m2
04:45 17.2 °C 12.7 °C 1017.5 hPa NE 4.8 km/h 12.9 km/h 75 % 0.0 mm 0 W/m2
04:50 17.2 °C 12.7 °C 1017.5 hPa NE 9.7 km/h 12.9 km/h 75 % 0.0 mm 0 W/m2
04:55 17.1 °C 12.6 °C 1017.5 hPa NNE 4.8 km/h 11.3 km/h 75 % 0.0 mm 0 W/m2
05:00 17.0 °C 12.7 °C 1017.5 hPa NE 9.7 km/h 11.3 km/h 76 % 0.0 mm 0 W/m2
05:05 17.0 °C 12.7 °C 1017.5 hPa Calm   11.3 km/h 76 % 0.0 mm 0 W/m2
05:10 16.8 °C 12.8 °C 1017.5 hPa NE 3.2 km/h 11.3 km/h 77 % 0.0 mm 0 W/m2
05:20 16.9 °C 12.8 °C 1017.5 hPa Calm   12.9 km/h 77 % 0.0 mm 0 W/m2
05:25 16.7 °C 12.8 °C 1017.5 hPa NNE 6.4 km/h 11.3 km/h 78 % 0.0 mm 0 W/m2
05:30 16.7 °C 12.8 °C 1017.5 hPa NNE 3.2 km/h 16.1 km/h 78 % 0.0 mm 0 W/m2
05:35 16.7 °C 13.0 °C 1017.5 hPa NE 3.2 km/h 16.1 km/h 79 % 0.0 mm 0 W/m2
05:40 16.7 °C 13.3 °C 1017.5 hPa ENE 1.6 km/h 16.1 km/h 80 % 0.0 mm 0 W/m2
05:45 16.7 °C 13.2 °C 1017.5 hPa Calm   12.9 km/h 80 % 0.0 mm 0 W/m2
05:50 16.7 °C 13.2 °C 1017.5 hPa NE 8.0 km/h 12.9 km/h 80 % 0.0 mm 0 W/m2
05:55 16.7 °C 13.4 °C 1017.5 hPa NE 3.2 km/h 16.1 km/h 81 % 0.0 mm 0 W/m2
06:00 16.7 °C 13.4 °C 1017.5 hPa NE 8.0 km/h 16.1 km/h 81 % 0.0 mm 0 W/m2
06:05 16.6 °C 13.5 °C 1017.8 hPa NE 3.2 km/h 16.1 km/h 82 % 0.0 mm 0 W/m2
06:10 16.6 °C 13.7 °C 1017.8 hPa NE 4.8 km/h 16.1 km/h 83 % 0.0 mm 0 W/m2
06:15 16.6 °C 13.7 °C 1017.8 hPa NE 3.2 km/h 14.5 km/h 83 % 0.0 mm 0 W/m2
06:20 16.5 °C 13.8 °C 1017.8 hPa NNE 1.6 km/h 19.3 km/h 84 % 0.0 mm 0 W/m2
06:25 16.5 °C 14.0 °C 1017.8 hPa NE 4.8 km/h 19.3 km/h 85 % 0.0 mm 5 W/m2
06:30 16.5 °C 14.0 °C 1017.8 hPa North 1.6 km/h 14.5 km/h 85 % 0.0 mm 7 W/m2
06:35 16.5 °C 14.1 °C 1018.2 hPa NNE 1.6 km/h 14.5 km/h 86 % 0.0 mm 9 W/m2
06:40 16.6 °C 14.2 °C 1017.8 hPa NE 3.2 km/h 14.5 km/h 86 % 0.0 mm 12 W/m2
06:45 16.6 °C 14.2 °C 1018.2 hPa East 1.6 km/h 16.1 km/h 86 % 0.0 mm 16 W/m2
06:50 16.6 °C 14.4 °C 1017.8 hPa NNE 4.8 km/h 16.1 km/h 87 % 0.0 mm 18 W/m2
06:55 16.7 °C 14.5 °C 1017.8 hPa ENE 9.7 km/h 14.5 km/h 87 % 0.0 mm 21 W/m2
07:00 16.7 °C 14.5 °C 1017.8 hPa North 1.6 km/h 14.5 km/h 87 % 0.0 mm 25 W/m2
07:05 16.7 °C 14.5 °C 1017.8 hPa ESE 3.2 km/h 11.3 km/h 87 % 0.0 mm 28 W/m2
07:10 16.8 °C 14.6 °C 1018.2 hPa NE 8.0 km/h 14.5 km/h 87 % 0.0 mm 30 W/m2
07:15 16.8 °C 14.7 °C 1017.8 hPa NE 6.4 km/h 14.5 km/h 87 % 0.0 mm 33 W/m2
07:20 16.9 °C 14.8 °C 1018.2 hPa North 9.7 km/h 14.5 km/h 87 % 0.0 mm 37 W/m2
07:25 16.9 °C 14.8 °C 1018.2 hPa NE 4.8 km/h 14.5 km/h 87 % 0.0 mm 40 W/m2
07:30 17.0 °C 14.8 °C 1018.2 hPa NE 4.8 km/h 14.5 km/h 87 % 0.0 mm 42 W/m2
07:35 17.1 °C 14.9 °C 1018.2 hPa Calm   14.5 km/h 87 % 0.0 mm 46 W/m2
07:40 17.2 °C 15.0 °C 1018.2 hPa NNE 4.8 km/h 14.5 km/h 87 % 0.0 mm 49 W/m2
07:45 17.2 °C 15.0 °C 1018.2 hPa NE 9.7 km/h 14.5 km/h 87 % 0.0 mm 53 W/m2
07:50 17.3 °C 15.1 °C 1018.2 hPa Calm   14.5 km/h 87 % 0.0 mm 56 W/m2
07:55 17.4 °C 15.3 °C 1018.5 hPa NNE 6.4 km/h 14.5 km/h 87 % 0.0 mm 60 W/m2
08:00 17.6 °C 15.2 °C 1018.5 hPa NNW 6.4 km/h 14.5 km/h 86 % 0.0 mm 155 W/m2
08:05 17.7 °C 15.3 °C 1018.5 hPa Calm   19.3 km/h 86 % 0.0 mm 171 W/m2
08:10 17.8 °C 15.5 °C 1018.5 hPa NNE 6.4 km/h 19.3 km/h 86 % 0.0 mm 188 W/m2
08:15 17.9 °C 15.4 °C 1018.5 hPa ENE 4.8 km/h 16.1 km/h 85 % 0.0 mm 207 W/m2
08:20 18.1 °C 15.5 °C 1018.5 hPa North 9.7 km/h 16.1 km/h 85 % 0.0 mm 216 W/m2
08:25 18.3 °C 15.6 °C 1018.5 hPa East 4.8 km/h 14.5 km/h 84 % 0.0 mm 230 W/m2
08:30 18.4 °C 15.5 °C 1018.5 hPa Calm   16.1 km/h 83 % 0.0 mm 221 W/m2
08:35 18.6 °C 15.6 °C 1018.5 hPa NE 4.8 km/h 17.7 km/h 83 % 0.0 mm 244 W/m2
08:40 18.9 °C 15.7 °C 1018.5 hPa NNE 1.6 km/h 17.7 km/h 82 % 0.0 mm 283 W/m2
08:45 19.1 °C 15.8 °C 1018.8 hPa NE 6.4 km/h 12.9 km/h 81 % 0.0 mm 144 W/m2
08:50 19.2 °C 15.8 °C 1018.8 hPa ENE 9.7 km/h 9.7 km/h 81 % 0.0 mm 139 W/m2
08:55 19.2 °C 15.4 °C 1018.8 hPa ESE 11.3 km/h 12.9 km/h 79 % 0.0 mm 144 W/m2
09:00 19.2 °C 15.4 °C 1019.2 hPa East 4.8 km/h 16.1 km/h 79 % 0.0 mm 178 W/m2
09:05 19.4 °C 15.7 °C 1019.2 hPa East 1.6 km/h 16.1 km/h 79 % 0.0 mm 179 W/m2
09:10 19.7 °C 15.9 °C 1019.2 hPa NE 3.2 km/h 9.7 km/h 79 % 0.0 mm 339 W/m2
09:15 20.1 °C 15.9 °C 1019.2 hPa ESE 6.4 km/h 11.3 km/h 77 % 0.0 mm 172 W/m2
09:20 20.0 °C 15.6 °C 1019.5 hPa NE 4.8 km/h 16.1 km/h 76 % 0.0 mm 214 W/m2
09:25 20.2 °C 15.8 °C 1019.2 hPa NE 6.4 km/h 16.1 km/h 76 % 0.0 mm 378 W/m2
09:30 20.7 °C 16.1 °C 1019.2 hPa NE 8.0 km/h 14.5 km/h 75 % 0.0 mm 446 W/m2
09:35 21.1 °C 16.3 °C 1018.8 hPa East 12.9 km/h 14.5 km/h 74 % 0.0 mm 438 W/m2
09:40 21.4 °C 16.1 °C 1018.8 hPa East 4.8 km/h 14.5 km/h 72 % 0.0 mm 438 W/m2
09:45 21.8 °C 16.5 °C 1018.8 hPa ENE 6.4 km/h 14.5 km/h 72 % 0.0 mm 455 W/m2
09:50 22.2 °C 16.4 °C 1018.8 hPa East 8.0 km/h 14.5 km/h 70 % 0.0 mm 478 W/m2
09:55 22.1 °C 16.2 °C 1019.2 hPa ESE 4.8 km/h 14.5 km/h 69 % 0.0 mm 223 W/m2
10:00 22.1 °C 16.3 °C 1019.2 hPa ESE 4.8 km/h 12.9 km/h 70 % 0.0 mm 552 W/m2
10:05 22.8 °C 16.6 °C 1019.2 hPa ESE 4.8 km/h 16.1 km/h 68 % 0.0 mm 269 W/m2
10:10 22.6 °C 16.1 °C 1019.2 hPa ESE 4.8 km/h 16.1 km/h 67 % 0.0 mm 587 W/m2
10:15 23.2 °C 16.8 °C 1019.2 hPa East 11.3 km/h 16.1 km/h 67 % 0.0 mm 367 W/m2
10:20 23.5 °C 16.8 °C 1018.8 hPa East 9.7 km/h 14.5 km/h 66 % 0.0 mm 566 W/m2
10:25 24.3 °C 16.8 °C 1018.8 hPa Calm   12.9 km/h 63 % 0.0 mm 554 W/m2
10:30 24.7 °C 16.1 °C 1018.8 hPa East 4.8 km/h 14.5 km/h 59 % 0.0 mm 578 W/m2
10:35 25.1 °C 15.9 °C 1018.8 hPa ESE 3.2 km/h 14.5 km/h 57 % 0.0 mm 573 W/m2
10:40 25.3 °C 15.9 °C 1018.8 hPa ESE 1.6 km/h 14.5 km/h 56 % 0.0 mm 598 W/m2
10:45 25.6 °C 15.8 °C 1018.5 hPa SE 6.4 km/h 14.5 km/h 55 % 0.0 mm 608 W/m2
10:50 25.8 °C 16.7 °C 1018.5 hPa East 6.4 km/h 14.5 km/h 57 % 0.0 mm 619 W/m2
10:55 26.1 °C 16.0 °C 1018.5 hPa ESE 9.7 km/h 14.5 km/h 54 % 0.0 mm 631 W/m2
11:00 26.2 °C 16.5 °C 1018.5 hPa ESE 4.8 km/h 11.3 km/h 55 % 0.0 mm 642 W/m2
11:05 26.1 °C 16.1 °C 1018.2 hPa ENE 1.6 km/h 9.7 km/h 54 % 0.0 mm 654 W/m2
11:10 26.4 °C 16.6 °C 1018.2 hPa ESE 3.2 km/h 9.7 km/h 55 % 0.0 mm 666 W/m2
11:15 26.3 °C 16.6 °C 1018.2 hPa East 1.6 km/h 9.7 km/h 55 % 0.0 mm 679 W/m2
11:20 26.2 °C 15.8 °C 1017.8 hPa NNE 3.2 km/h 8.0 km/h 53 % 0.0 mm 687 W/m2
11:25 26.6 °C 16.2 °C 1017.8 hPa SE 6.4 km/h 12.9 km/h 53 % 0.0 mm 696 W/m2
11:30 26.9 °C 16.6 °C 1017.8 hPa ENE 1.6 km/h 12.9 km/h 53 % 0.0 mm 705 W/m2
11:35 26.7 °C 16.3 °C 1017.8 hPa South 3.2 km/h 8.0 km/h 53 % 0.0 mm 715 W/m2
11:40 27.2 °C 16.8 °C 1017.8 hPa NE 6.4 km/h 11.3 km/h 53 % 0.0 mm 724 W/m2
11:45 27.3 °C 16.6 °C 1017.8 hPa NNE 11.3 km/h 16.1 km/h 52 % 0.0 mm 735 W/m2
11:50 26.9 °C 16.6 °C 1017.5 hPa Calm   16.1 km/h 53 % 0.0 mm 745 W/m2
11:55 27.6 °C 16.8 °C 1017.8 hPa ENE 4.8 km/h 14.5 km/h 52 % 0.0 mm 752 W/m2
12:00 27.5 °C 16.5 °C 1017.5 hPa North 12.9 km/h 17.7 km/h 51 % 0.0 mm 765 W/m2
12:05 27.6 °C 16.9 °C 1017.5 hPa ENE 12.9 km/h 17.7 km/h 52 % 0.0 mm 766 W/m2
12:10 27.8 °C 17.0 °C 1017.5 hPa NNW 9.7 km/h 17.7 km/h 52 % 0.0 mm 779 W/m2
12:15 28.2 °C 16.5 °C 1017.5 hPa NE 4.8 km/h 17.7 km/h 49 % 0.0 mm 786 W/m2
12:20 28.6 °C 17.2 °C 1017.2 hPa Calm   16.1 km/h 50 % 0.0 mm 796 W/m2
12:25 28.7 °C 16.6 °C 1017.2 hPa East 8.0 km/h 16.1 km/h 48 % 0.0 mm 805 W/m2
12:30 28.6 °C 16.5 °C 1017.2 hPa NE 4.8 km/h 11.3 km/h 48 % 0.0 mm 812 W/m2
12:40 29.1 °C 16.6 °C 1016.8 hPa NNE 9.7 km/h 17.7 km/h 47 % 0.0 mm 826 W/m2
12:45 28.9 °C 17.2 °C 1016.8 hPa NE 4.8 km/h 14.5 km/h 49 % 0.0 mm 823 W/m2
12:50 29.4 °C 16.6 °C 1016.5 hPa North 9.7 km/h 14.5 km/h 46 % 0.0 mm 745 W/m2
12:55 29.3 °C 17.2 °C 1016.5 hPa ENE 16.1 km/h 16.1 km/h 48 % 0.0 mm 828 W/m2
13:00 29.8 °C 17.3 °C 1016.5 hPa ENE 1.6 km/h 17.7 km/h 47 % 0.0 mm 842 W/m2
13:05 29.8 °C 17.3 °C 1016.5 hPa NNW 11.3 km/h 17.7 km/h 47 % 0.0 mm 846 W/m2
13:10 30.0 °C 17.5 °C 1016.5 hPa North 8.0 km/h 17.7 km/h 47 % 0.0 mm 851 W/m2
13:15 30.3 °C 17.4 °C 1016.5 hPa NE 16.1 km/h 16.1 km/h 46 % 0.0 mm 840 W/m2
13:20 30.3 °C 17.1 °C 1016.1 hPa NNW 3.2 km/h 16.1 km/h 45 % 0.0 mm 861 W/m2
13:25 30.4 °C 17.5 °C 1016.1 hPa ENE 12.9 km/h 16.1 km/h 46 % 0.0 mm 861 W/m2
13:35 31.2 °C 17.8 °C 1016.1 hPa East 9.7 km/h 17.7 km/h 45 % 0.0 mm 874 W/m2
13:40 30.8 °C 17.2 °C 1016.1 hPa North 3.2 km/h 17.7 km/h 44 % 0.0 mm 863 W/m2
13:45 31.3 °C 17.9 °C 1015.8 hPa ENE 8.0 km/h 17.7 km/h 45 % 0.0 mm 738 W/m2
13:50 30.3 °C 17.0 °C 1015.8 hPa NE 8.0 km/h 16.1 km/h 45 % 0.0 mm 853 W/m2
13:55 30.8 °C 17.2 °C 1015.8 hPa ENE 9.7 km/h 17.7 km/h 44 % 0.0 mm 875 W/m2
14:00 31.0 °C 18.0 °C 1015.8 hPa NE 12.9 km/h 17.7 km/h 46 % 0.0 mm 888 W/m2
14:05 31.9 °C 18.1 °C 1015.8 hPa NNE 12.9 km/h 14.5 km/h 44 % 0.0 mm 773 W/m2
14:10 31.4 °C 17.3 °C 1015.8 hPa NNE 9.7 km/h 17.7 km/h 43 % 0.0 mm 867 W/m2
14:15 31.3 °C 17.2 °C 1015.8 hPa North 6.4 km/h 17.7 km/h 43 % 0.0 mm 837 W/m2
14:20 31.6 °C 17.1 °C 1015.8 hPa NE 12.9 km/h 19.3 km/h 42 % 0.0 mm 840 W/m2
14:25 31.7 °C 16.9 °C 1015.8 hPa NE 9.7 km/h 19.3 km/h 41 % 0.0 mm 867 W/m2
14:30 31.3 °C 17.3 °C 1015.5 hPa North 11.3 km/h 16.1 km/h 43 % 0.0 mm 863 W/m2
14:35 31.3 °C 16.8 °C 1015.5 hPa NE 9.7 km/h 19.3 km/h 42 % 0.0 mm 861 W/m2
14:40 31.7 °C 17.2 °C 1015.8 hPa NE 11.3 km/h 19.3 km/h 42 % 0.0 mm 807 W/m2
14:45 31.7 °C 17.6 °C 1015.5 hPa NE 14.5 km/h 19.3 km/h 43 % 0.0 mm 786 W/m2
14:50 32.1 °C 17.1 °C 1015.8 hPa NE 12.9 km/h 19.3 km/h 41 % 0.0 mm 812 W/m2
14:55 32.0 °C 18.2 °C 1015.5 hPa NE 9.7 km/h 19.3 km/h 44 % 0.0 mm 777 W/m2
15:00 32.2 °C 17.7 °C 1015.5 hPa ENE 14.5 km/h 17.7 km/h 42 % 0.0 mm 779 W/m2
15:05 31.8 °C 16.9 °C 1015.5 hPa NE 6.4 km/h 19.3 km/h 41 % 0.0 mm 694 W/m2
15:10 31.8 °C 16.9 °C 1015.5 hPa ENE 4.8 km/h 19.3 km/h 41 % 0.0 mm 867 W/m2
15:15 32.2 °C 16.9 °C 1015.5 hPa NNW 4.8 km/h 17.7 km/h 40 % 0.0 mm 798 W/m2
15:20 32.5 °C 17.9 °C 1015.5 hPa North 4.8 km/h 16.1 km/h 42 % 0.0 mm 710 W/m2
15:25 31.7 °C 16.9 °C 1015.5 hPa NE 4.8 km/h 14.5 km/h 41 % 0.0 mm 745 W/m2
15:30 32.2 °C 16.9 °C 1015.5 hPa NE 9.7 km/h 20.9 km/h 40 % 0.0 mm 624 W/m2
15:35 31.8 °C 16.9 °C 1015.5 hPa NW 1.6 km/h 20.9 km/h 41 % 0.0 mm 612 W/m2
15:40 32.0 °C 16.7 °C 1015.5 hPa NNW 3.2 km/h 17.7 km/h 40 % 0.0 mm 900 W/m2
15:45 32.3 °C 17.0 °C 1015.5 hPa NNE 1.6 km/h 17.7 km/h 40 % 0.0 mm 578 W/m2
15:50 32.2 °C 17.2 °C 1015.5 hPa East 12.9 km/h 17.7 km/h 41 % 0.0 mm 503 W/m2
15:55 31.9 °C 17.4 °C 1015.5 hPa North 6.4 km/h 14.5 km/h 42 % 0.0 mm 666 W/m2
16:00 31.9 °C 16.7 °C 1015.5 hPa ESE 4.8 km/h 14.5 km/h 40 % 0.0 mm 504 W/m2
16:05 31.7 °C 16.8 °C 1015.5 hPa East 11.3 km/h 16.1 km/h 41 % 0.0 mm 786 W/m2
16:10 32.2 °C 16.5 °C 1015.5 hPa ENE 1.6 km/h 16.1 km/h 39 % 0.0 mm 784 W/m2
16:15 32.8 °C 17.1 °C 1015.5 hPa ENE 1.6 km/h 16.1 km/h 39 % 0.0 mm 673 W/m2
16:20 32.4 °C 16.3 °C 1015.5 hPa Calm   14.5 km/h 38 % 0.0 mm 563 W/m2
16:25 32.1 °C 17.2 °C 1015.5 hPa NE 8.0 km/h 14.5 km/h 41 % 0.0 mm 580 W/m2
16:30 32.3 °C 17.7 °C 1015.5 hPa Calm   14.5 km/h 42 % 0.0 mm 536 W/m2
16:35 32.2 °C 17.3 °C 1015.1 hPa NNE 1.6 km/h 14.5 km/h 41 % 0.0 mm 643 W/m2
16:40 32.2 °C 16.5 °C 1015.1 hPa East 6.4 km/h 14.5 km/h 39 % 0.0 mm 642 W/m2
16:45 32.3 °C 16.2 °C 1015.1 hPa East 4.8 km/h 11.3 km/h 38 % 0.0 mm 758 W/m2
16:50 33.2 °C 16.9 °C 1015.1 hPa East 16.1 km/h 17.7 km/h 38 % 0.0 mm 851 W/m2
17:00 32.8 °C 17.8 °C 1015.1 hPa NNE 8.0 km/h 16.1 km/h 41 % 0.0 mm 679 W/m2
17:05 32.6 °C 16.4 °C 1015.1 hPa North 4.8 km/h 16.1 km/h 38 % 0.0 mm 517 W/m2
17:10 32.6 °C 16.4 °C 1015.1 hPa NNW 8.0 km/h 12.9 km/h 38 % 0.0 mm 605 W/m2
17:15 32.5 °C 16.8 °C 1014.8 hPa West 3.2 km/h 12.9 km/h 39 % 0.0 mm 330 W/m2
17:20 31.9 °C 16.3 °C 1014.8 hPa ENE 8.0 km/h 9.7 km/h 39 % 0.0 mm 294 W/m2
17:25 31.6 °C 16.8 °C 1014.8 hPa NNE 1.6 km/h 9.7 km/h 41 % 0.0 mm 290 W/m2
17:30 31.4 °C 16.2 °C 1014.8 hPa NNW 3.2 km/h 9.7 km/h 40 % 0.0 mm 374 W/m2
17:35 31.4 °C 16.6 °C 1014.8 hPa NNE 8.0 km/h 14.5 km/h 41 % 0.0 mm 406 W/m2
17:40 31.7 °C 17.2 °C 1014.8 hPa East 3.2 km/h 14.5 km/h 42 % 0.0 mm 513 W/m2
17:45 32.1 °C 16.8 °C 1014.8 hPa NE 8.0 km/h 12.9 km/h 40 % 0.0 mm 461 W/m2
17:50 31.7 °C 16.5 °C 1014.8 hPa NNW 4.8 km/h 12.9 km/h 40 % 0.0 mm 301 W/m2
17:55 31.8 °C 17.0 °C 1014.4 hPa ENE 9.7 km/h 12.9 km/h 41 % 0.0 mm 417 W/m2
18:00 31.4 °C 16.6 °C 1014.4 hPa ENE 4.8 km/h 16.1 km/h 41 % 0.0 mm 297 W/m2
18:05 31.6 °C 16.8 °C 1014.4 hPa East 9.7 km/h 16.1 km/h 41 % 0.0 mm 373 W/m2
18:10 31.9 °C 17.4 °C 1014.4 hPa East 9.7 km/h 12.9 km/h 42 % 0.0 mm 371 W/m2
18:15 31.8 °C 17.0 °C 1014.4 hPa NE 9.7 km/h 12.9 km/h 41 % 0.0 mm 422 W/m2
18:20 32.1 °C 16.8 °C 1014.4 hPa ENE 4.8 km/h 12.9 km/h 40 % 0.0 mm 592 W/m2
18:25 32.6 °C 17.3 °C 1014.1 hPa ENE 9.7 km/h 14.5 km/h 40 % 0.0 mm 478 W/m2
18:30 32.6 °C 17.3 °C 1014.1 hPa SE 8.0 km/h 14.5 km/h 40 % 0.0 mm 540 W/m2
18:35 31.9 °C 16.3 °C 1014.1 hPa ENE 6.4 km/h 9.7 km/h 39 % 0.0 mm 496 W/m2
18:40 32.2 °C 16.9 °C 1014.1 hPa ENE 8.0 km/h 17.7 km/h 40 % 0.0 mm 534 W/m2
18:45 32.3 °C 16.6 °C 1014.1 hPa ENE 3.2 km/h 17.7 km/h 39 % 0.0 mm 267 W/m2
18:50 31.6 °C 16.4 °C 1014.1 hPa ESE 4.8 km/h 11.3 km/h 40 % 0.0 mm 309 W/m2
18:55 31.6 °C 16.7 °C 1014.1 hPa East 3.2 km/h 11.3 km/h 41 % 0.0 mm 306 W/m2
19:00 31.4 °C 16.9 °C 1013.8 hPa ENE 4.8 km/h 9.7 km/h 42 % 0.0 mm 297 W/m2
19:05 31.4 °C 16.6 °C 1014.1 hPa ESE 4.8 km/h 12.9 km/h 41 % 0.0 mm 438 W/m2
19:10 31.7 °C 16.4 °C 1013.8 hPa SE 3.2 km/h 12.9 km/h 40 % 0.0 mm 422 W/m2
19:15 31.7 °C 17.2 °C 1013.8 hPa Calm   11.3 km/h 42 % 0.0 mm 388 W/m2
19:20 31.8 °C 16.5 °C 1013.8 hPa ENE 6.4 km/h 11.3 km/h 40 % 0.0 mm 355 W/m2
19:25 31.8 °C 16.9 °C 1013.8 hPa ENE 3.2 km/h 11.3 km/h 41 % 0.0 mm 334 W/m2
19:30 31.4 °C 17.3 °C 1013.8 hPa North 1.6 km/h 11.3 km/h 43 % 0.0 mm 264 W/m2
19:35 31.3 °C 16.8 °C 1013.8 hPa East 8.0 km/h 12.9 km/h 42 % 0.0 mm 288 W/m2
19:40 31.2 °C 16.8 °C 1013.8 hPa East 9.7 km/h 12.9 km/h 42 % 0.0 mm 264 W/m2
19:45 31.1 °C 16.6 °C 1013.8 hPa Calm   12.9 km/h 42 % 0.0 mm 241 W/m2
19:50 30.9 °C 17.3 °C 1013.8 hPa NE 3.2 km/h 8.0 km/h 44 % 0.0 mm 206 W/m2
19:55 30.8 °C 16.4 °C 1013.8 hPa Calm   8.0 km/h 42 % 0.0 mm 185 W/m2
20:00 30.7 °C 16.7 °C 1013.8 hPa East 3.2 km/h 6.4 km/h 43 % 0.0 mm 160 W/m2
20:05 30.4 °C 17.8 °C 1013.8 hPa WNW 6.4 km/h 9.7 km/h 47 % 0.0 mm 114 W/m2
20:10 29.4 °C 18.2 °C 1013.8 hPa WNW 1.6 km/h 9.7 km/h 51 % 0.0 mm 141 W/m2
20:15 29.0 °C 18.8 °C 1013.8 hPa Calm   6.4 km/h 54 % 0.0 mm 155 W/m2
20:20 28.8 °C 18.3 °C 1013.8 hPa Calm   8.0 km/h 53 % 0.0 mm 144 W/m2
20:25 28.6 °C 19.0 °C 1013.4 hPa Calm   8.0 km/h 56 % 0.0 mm 128 W/m2
20:30 28.5 °C 19.4 °C 1013.8 hPa Calm   4.8 km/h 58 % 0.0 mm 109 W/m2
20:35 28.3 °C 19.0 °C 1013.8 hPa Calm   4.8 km/h 57 % 0.0 mm 102 W/m2
20:40 28.7 °C 17.5 °C 1013.4 hPa ENE 1.6 km/h 8.0 km/h 51 % 0.0 mm 83 W/m2
20:45 28.8 °C 17.1 °C 1013.4 hPa East 3.2 km/h 11.3 km/h 49 % 0.0 mm 47 W/m2
20:50 28.9 °C 17.2 °C 1013.4 hPa Calm   11.3 km/h 49 % 0.0 mm 42 W/m2
20:55 28.7 °C 17.6 °C 1013.4 hPa ENE 1.6 km/h 8.0 km/h 51 % 0.0 mm 39 W/m2
21:00 28.8 °C 17.3 °C 1013.8 hPa Calm   4.8 km/h 50 % 0.0 mm 35 W/m2
21:05 28.6 °C 17.4 °C 1013.8 hPa Calm   4.8 km/h 51 % 0.0 mm 33 W/m2
21:10 28.3 °C 17.5 °C 1013.8 hPa Calm   6.4 km/h 52 % 0.0 mm 30 W/m2
21:15 27.8 °C 17.4 °C 1013.8 hPa Calm   6.4 km/h 53 % 0.0 mm 28 W/m2
21:20 27.6 °C 17.4 °C 1013.8 hPa Calm   8.0 km/h 54 % 0.0 mm 25 W/m2
21:25 27.5 °C 17.7 °C 1013.8 hPa North 3.2 km/h 8.0 km/h 55 % 0.0 mm 23 W/m2
21:30 27.2 °C 17.6 °C 1013.8 hPa NNE 1.6 km/h 6.4 km/h 56 % 0.0 mm 19 W/m2
21:35 26.8 °C 17.6 °C 1013.8 hPa NNW 4.8 km/h 12.9 km/h 57 % 0.0 mm 18 W/m2
21:40 26.3 °C 18.2 °C 1013.8 hPa NNW 1.6 km/h 16.1 km/h 61 % 0.0 mm 16 W/m2
21:45 26.0 °C 18.4 °C 1014.1 hPa ENE 6.4 km/h 16.1 km/h 63 % 0.0 mm 14 W/m2
21:50 26.0 °C 18.4 °C 1014.1 hPa North 3.2 km/h 14.5 km/h 63 % 0.0 mm 11 W/m2
21:55 26.0 °C 18.4 °C 1014.1 hPa NNE 1.6 km/h 14.5 km/h 63 % 0.0 mm 9 W/m2
22:00 25.9 °C 18.1 °C 1014.1 hPa ENE 16.1 km/h 16.1 km/h 62 % 0.0 mm 7 W/m2
22:05 25.8 °C 18.0 °C 1014.1 hPa NNE 8.0 km/h 16.1 km/h 62 % 0.0 mm 5 W/m2
22:10 25.7 °C 17.8 °C 1014.1 hPa NNE 3.2 km/h 16.1 km/h 62 % 0.0 mm 0 W/m2
22:15 25.6 °C 17.5 °C 1014.1 hPa NNE 6.4 km/h 17.7 km/h 61 % 0.0 mm 0 W/m2
22:20 25.3 °C 17.5 °C 1014.1 hPa NNE 6.4 km/h 17.7 km/h 62 % 0.0 mm 0 W/m2
22:25 25.0 °C 17.2 °C 1014.1 hPa NNE 4.8 km/h 14.5 km/h 62 % 0.0 mm 0 W/m2
22:30 24.7 °C 17.2 °C 1014.4 hPa NE 3.2 km/h 16.1 km/h 63 % 0.0 mm 0 W/m2
22:35 24.6 °C 17.1 °C 1014.4 hPa NE 4.8 km/h 16.1 km/h 63 % 0.0 mm 0 W/m2
22:40 24.3 °C 16.8 °C 1014.4 hPa NNE 3.2 km/h 17.7 km/h 63 % 0.0 mm 0 W/m2
22:45 24.3 °C 16.8 °C 1014.8 hPa NE 12.9 km/h 17.7 km/h 63 % 0.0 mm 0 W/m2
22:50 24.1 °C 16.6 °C 1014.4 hPa NNE 9.7 km/h 12.9 km/h 63 % 0.0 mm 0 W/m2
22:55 23.8 °C 16.4 °C 1014.8 hPa North 9.7 km/h 14.5 km/h 63 % 0.0 mm 0 W/m2
23:00 23.8 °C 16.1 °C 1014.8 hPa Calm   14.5 km/h 62 % 0.0 mm 0 W/m2
23:05 23.7 °C 15.8 °C 1014.8 hPa North 3.2 km/h 12.9 km/h 61 % 0.0 mm 0 W/m2
23:10 23.5 °C 15.8 °C 1014.8 hPa NNE 6.4 km/h 11.3 km/h 62 % 0.0 mm 0 W/m2
23:20 23.2 °C 15.5 °C 1014.8 hPa Calm   14.5 km/h 62 % 0.0 mm 0 W/m2
23:25 23.0 °C 15.3 °C 1014.8 hPa NE 6.4 km/h 14.5 km/h 62 % 0.0 mm 0 W/m2
23:30 22.8 °C 15.4 °C 1014.8 hPa NNE 3.2 km/h 12.9 km/h 63 % 0.0 mm 0 W/m2
23:35 22.7 °C 15.6 °C 1014.8 hPa NNE 6.4 km/h 12.9 km/h 64 % 0.0 mm 0 W/m2
23:40 22.7 °C 15.3 °C 1014.8 hPa NNE 4.8 km/h 12.9 km/h 63 % 0.0 mm 0 W/m2
23:45 22.7 °C 15.3 °C 1014.8 hPa North 6.4 km/h 14.5 km/h 63 % 0.0 mm 0 W/m2
23:50 22.6 °C 15.2 °C 1014.8 hPa NNE 6.4 km/h 14.5 km/h 63 % 0.0 mm 0 W/m2
23:55 22.4 °C 15.3 °C 1014.8 hPa North 4.8 km/h 11.3 km/h 64 % 0.0 mm 0 W/m2
Avec l'autorisation de Weather Underground - 1.75 mb